Observations for Trim Patrick St
| Time | AQI | Temp °C | Hum % | Pres Pa | CO μg/m³ | H₂S μg/m³ | NO μg/m³ | NO₂ μg/m³ | O₃ μg/m³ | SO₂ μg/m³ | PM1 μg/m³ | PM2.5 μg/m³ | PM10 μg/m³ |
|---|---|---|---|---|---|---|---|---|---|---|---|---|---|
| Monday 3 August 2026 | |||||||||||||
| 21:21 | 4 | 18.7 | 69 | 38,459 | 0 | 14.9 | 0.67 | 39.33 | 26.4 | 1.86 | 2 | 5.2 | 5.72 |
| 21:20 | 4 | 18.7 | 68 | 38,459 | 0 | 15.5 | 0.81 | 49.36 | 47.43 | 1.5 | 3.71 | 7.45 | 8.2 |
| 21:19 | 4 | 18.7 | 69 | 38,459 | 0 | 16.18 | 0.75 | 49.38 | 44.99 | 1.83 | 2 | 5.96 | 6.56 |
| 21:18 | 4 | 18.7 | 70 | 38,458 | 0 | 16.37 | 0.84 | 48.32 | 18.57 | 1.99 | 2.86 | 6.57 | 7.22 |
| 21:17 | 4 | 18.8 | 68 | 38,458 | 0 | 16.55 | 0.88 | 65.07 | 25.52 | 1.8 | 2.86 | 7.42 | 8.16 |
| 21:16 | 4 | 18.8 | 70 | 38,457 | 0 | 15 | 0.86 | 56.16 | 15.19 | 1.99 | 2.86 | 6.58 | 7.24 |
| 21:15 | 4 | 18.9 | 70 | 38,455 | 0 | 13.35 | 0.98 | 34.59 | 32.33 | 2.11 | 2.86 | 5.89 | 6.47 |
| 21:13 | 4 | 18.9 | 69 | 38,451 | 0 | 14.92 | 0.89 | 37.46 | 34.12 | 1.57 | 2.86 | 6.67 | 7.34 |
| 21:12 | 4 | 19 | 66 | 38,447 | 0 | 14.32 | 0.85 | 46.35 | 64.16 | 1.4 | 2.86 | 6.9 | 7.59 |
| 21:10 | 4 | 19 | 63 | 38,436 | 0 | 12.19 | 0.89 | 31.57 | 39.42 | 0.01 | 2.86 | 7.08 | 7.79 |
| 21:09 | 4 | 19.1 | 65 | 38,428 | 0 | 15.63 | 0.81 | 45.23 | 64.36 | 2 | 2 | 5.44 | 5.99 |
| 21:08 | 4 | 19.1 | 67 | 38,417 | 0 | 14.66 | 0.79 | 43.09 | 40.56 | 1.44 | 2.86 | 7.5 | 8.25 |
| 20:08 | 4 | 21 | 62 | 74,947 | 0 | 23.56 | 0.63 | 53.84 | 54.82 | 5.87 | 3.71 | 7.88 | 8.67 |
| 20:07 | 4 | 21 | 62 | 74,845 | 0 | 22.82 | 0.63 | 50.65 | 50.95 | 5.17 | 2.86 | 7.15 | 7.86 |
| 20:06 | 4 | 21.1 | 62 | 74,787 | 0 | 24.28 | 0.77 | 58.17 | 57.5 | 5.67 | 3.71 | 8.62 | 9.49 |
| 20:05 | 4 | 21.1 | 59 | 74,717 | 0 | 24.59 | 0.92 | 58.87 | 51.21 | 5.26 | 4.57 | 9.54 | 10.49 |
| 20:04 | 4 | 21.1 | 61 | 74,646 | 0 | 23.38 | 0.88 | 57.85 | 50.61 | 5.7 | 3.71 | 7.92 | 8.71 |
| 20:03 | 4 | 21.2 | 61 | 74,575 | 0 | 23.88 | 0.86 | 55.81 | 54.71 | 5.56 | 3.71 | 7.93 | 8.73 |
| 20:02 | 4 | 21.2 | 61 | 74,507 | 0 | 22.67 | 0.89 | 48.72 | 47.24 | 5.9 | 5.43 | 10.19 | 11.21 |
| 20:01 | 4 | 21.3 | 61 | 74,438 | 0 | 25.99 | 0.9 | 55.37 | 48.73 | 6.37 | 5.43 | 9.43 | 10.37 |